Regional Weather Roundup
Issued by NWS

Home | Current Version | Previous Version | Text Only | Print | Product List | Glossary On
Versions: 1 2 3 4 5 6 7 8 9 10 11 12 13 14 15 16 17 18 19 20 21 22 23 24 25 26 27 28 29 30 31 32 33 34 35 36 37 38 39 40 41 42 43 44 45 46 47 48 49 50
000
ASUS44 KLUB 052010
RWRTX
WEST TEXAS WEATHER ROUNDUP
NATIONAL WEATHER SERVICE LUBBOCK TX
200 PM CST MON DEC 05 2016

NOTE: "FAIR" INDICATES FEW OR NO CLOUDS BELOW 12,000 FEET WITH NO
SIGNIFICANT WEATHER AND/OR OBSTRUCTIONS TO VISIBILITY.

TXZ004-006>008-010-012-014-016-OKZ002-052100-
TEXAS PANHANDLE/OKLAHOMA PANHANDLE

CITY           SKY/WX    TMP DP  RH WIND       PRES   REMARKS
AMARILLO       SUNNY     63  29  27 S20       29.59F
BORGER         SUNNY     63  27  25 S15G23    29.56F
CANADIAN       SUNNY     62  28  27 SW17G29   29.60F
DALHART        SUNNY     68  22  17 SW9       29.54F
GUYMON         SUNNY     65  26  23 S8        29.52F
HEREFORD       SUNNY     67  24  20 W15G22    29.61F
PAMPA          SUNNY     61  29  29 SW23      29.59F
PERRYTON       SUNNY     60  30  32 SW22G28   29.54F
$$

TXZ026-029-035-045-048-052100-
SOUTHERN PANHANDLE/SOUTH PLAINS/ROLLING PLAINS

CITY           SKY/WX    TMP DP  RH WIND       PRES   REMARKS
CHILDRESS      SUNNY     59  32  36 S20G25    29.66F
SEMINOLE       SUNNY     59  34  39 SW13G20   29.73F
LUBBOCK        MOSUNNY   59  34  39 SW20        N/A
PLAINVIEW      SUNNY     58  30  34 SW20G26   29.62F
SNYDER         MOSUNNY   55  38  51 S12       29.74F
$$

TXZ052-054-060>062-072-078-127-140-154-169-052100-
PERMIAN BASIN/CONCHO VALLEY/BIG COUNTRY/EDWARDS PLATEAU

CITY           SKY/WX    TMP DP  RH WIND       PRES   REMARKS
ABILENE        CLOUDY    47  45  93 SW15      29.77F
BIG SPRING       N/A     58  44  61 SW12      29.77F
BROWNWOOD      CLOUDY    48  45  87 W6        29.78S
JUNCTION       CLOUDY    50  47  89 W5        29.78F
MIDLAND        SUNNY     58  40  51 SW14      29.75F
ODESSA         SUNNY     58  39  49 SW17      29.76F
SAN ANGELO     LGT RAIN  48  45  89 SW9       29.80F
SONORA         RAIN      48  45  87 CALM      29.85F
SWEETWATER     MOSUNNY   54  42  64 S16G22    29.76F
WINK           SUNNY     60  36  40 W13       29.74F
$$

TXZ055-058-074-075-080-082-052100-
FAR WEST/SOUTHWEST MOUNTAINS/TRANS PECOS

CITY           SKY/WX    TMP DP  RH WIND       PRES   REMARKS
ALPINE         SUNNY     59  32  35 W23       29.88F
DRYDEN           N/A     57  47  69 SW20      29.78F
EL PASO        MOSUNNY   55  31  39 S10       29.86F
FORT STOCKTON  SUNNY     63  41  44 W9        29.78F
GUADALUPE PASS SUNNY     51  30  44 SW30G40   29.84F
MARFA          SUNNY     56  30  37 W23G29    29.88F
PECOS          SUNNY     63  35  35 W20G25    29.76F
PRESIDIO       FAIR      59  41  51 S8        29.88F
$$

TXZ014-016-019-021>030-083-052100
TEXAS TECH WEST TEXAS MESONET/TEXAS PANHANDLE/NORTHERN SOUTH PLAINS

CITY           SKY/WX    TMP DP  RH WIND       PRES   REMARKS
ABERNATHY 5ENE   N/A     59  36  41 S21       29.66F
AMARILLO 9NNE    N/A     67  25  20 S9        29.57F
AMARILLO 7SSE    N/A     65  30  27 S18       29.60F
AMHERST 1NE      N/A     63  27  25 SW21G29   29.65F
BOOTLEG 11WNW    N/A     63  20  19 W21       29.64F
CANADIAN 6E      N/A     59  33  37 S21       29.59F
CAPROCK CYN SP   N/A     60  32  34 S20       29.64F
CHILDRESS 2NNE   N/A     58  33  39 S20G29    29.67F
CLARENDON 2WSW   N/A     61  28  28 S16G24    29.63F
CLAUDE 12SW      N/A     61  31  31 S16       29.61F
DIMMITT 2NE      N/A     62  26  25 SW22      29.62F
FLOYDADA 2NNE    N/A     57  34  41 S20G26    29.65F
FRIONA 2NE       N/A     63  22  21 W18G26    29.63F
GOODLETT 3W      N/A     56  36  47 S22       29.67F
HART 3N          N/A     63  29  28 SW18G26   29.63F
HEREFORD 2NW     N/A     64  22  20 W18       29.63F
MCLEAN 1E        N/A     55  31  40 S23G30    29.62F
MEMPHIS 1NE      N/A     60  35  40 SE14G21   29.66F
MULESHOE 2SSW    N/A     65  21  19 W20G30    29.66F
OLTON 6S         N/A     59  34  39 S20       29.65F
PALO DURO SP     N/A     64  30  27 S14       29.62F
PAMPA 2E         N/A     58  29  33 S22G29    29.60F
PLAINVIEW 1S     N/A     59  32  37 SW20G28   29.64F
SILVERTON 7ESE   N/A     61  27  28 S17G24    29.62F
TULIA 2ENE       N/A     58  38  46 SW16G23   29.64F
TURKEY 2WSW      N/A     60  35  39 S20       29.65F
UMBARGER 3NNE    N/A     64  26  24 SW15      29.61F
$$

TXZ033>036-039>041-045>048-052100
TEXAS TECH WEST TEXAS MESONET/SOUTH PLAINS

CITY           SKY/WX    TMP DP  RH WIND       PRES   REMARKS
AIKEN 3WSW       N/A     60  33  37 S20       29.65F
ANDREWS 2NE      N/A     60  34  37 SW12      29.76F
ANTON 6SSW       N/A     60  37  42 S20       29.66F
BROWNFIELD 2S    N/A     57  37  46 SW17      29.71F
DENVR CTY 7WNW   N/A     58  32  37 SW18      29.71F
GAIL 2ESE        N/A     56  40  54 S14       29.73F
LAMESA 2SE       N/A     58  38  47 SW15      29.74F
LEVELLAND 4S     N/A     59  34  39 S16       29.69F
LUBBOCK 3WNW     N/A     59  36  42 S16G22    29.69F
MORTON 1ENE      N/A     64  25  23 SW20      29.67F
ODONNELL 1N      N/A     56  37  48 SW16      29.73F
PLAINS 3N        N/A     59  34  39 SW17G23   29.71F
RALLS 1SE        N/A     56  36  46 S18       29.70F
REESE CENTER     N/A     57  37  46 S20       29.68F
SEAGRAVES 1SW    N/A     58  38  48 SW14G21   29.73F
SEMINOLE 2NNE    N/A     59  35  40 SW14      29.74F
SLATON 2NE       N/A     56  39  52 S20       29.70F
SNYDER 3E        N/A     56  41  56 S13G18    29.75F
SUNDOWN 8SW      N/A     60  37  41 S17G23    29.69F
TAHOKA 3NNE      N/A     58  38  48 SW16      29.72F
WOLFFORTH 6SSW   N/A     58  37  45 S16       29.70F
$$

TXZ031-032-036>038-042>044-052100-
TEXAS TECH WEST TEXAS MESONET/ROLLING PLAINS

CITY           SKY/WX    TMP DP  RH WIND       PRES   REMARKS
ASPERMONT 3NE    N/A     55  41  58 SW13      29.74F
FLUVANNA 3WNW    N/A     55  39  55 S14       29.73F
GRAHAM 5SSW      N/A     57  37  46 S16       29.71F
GUTHRIE 10WSW    N/A     57  36  44 S15       29.70F
HASKELL 1NW      N/A     50  42  75 S12       29.75F
JAYTON 1SSE      N/A     56  34  43 S13       29.72F
KNOX CITY 3NW    N/A     52  42  69 S14       29.75F
LK A HENRY 1NW   N/A     57  37  45 SW12      29.73F
NORTHFIELD 1S    N/A     61  33  34 S20G29    29.66F
ODELL 4ENE       N/A     53  43  69 SE17      29.72F
PADUCAH 10SW     N/A     57  32  38 S17G25    29.70F
POST 1NE         N/A     60  33  36 SW14G20   29.71F
RRING SPRGS 3N LGT RAIN  58  36  42 S21G26    29.68F
SEYMOUR 3NW      N/A     50  42  75 S9        29.75F
SPUR 1W          N/A     57  37  47 S14       29.70F
WEINERT 2NNE     N/A     51  43  75 S14       29.75F
WHITE RVR 6NE    N/A     59  31  34 S18G24    29.70F
$$

TXZ052-054-060>062-072-078-127-140-154-169-052100-
TEXAS TECH WEST TEXAS MESONET/PERMIAN BASIN/
CONCHO VALLEY/BIG COUNTRY/EDWARDS PLATEAU

CITY           SKY/WX    TMP DP  RH WIND       PRES   REMARKS
COYANOSA 2N      N/A     64  38  38 SW17      29.77F
JUNCTION 1SSW    N/A     50  47  87 SW7       29.81F
MERTZON 3NNE     N/A     47  46  93 SW6       29.82F
SAN ANGELO 7NW   N/A     46  44  91 SW6       29.82F
STRLNG CT 4WSW   N/A     56  42  58 S9        29.78F
ST LAWRNCE 5SW   N/A     54  43  67 S12       29.78F
SWEETWATR 11SW   N/A     53  42  65 S12       29.77F
WALL 1E          N/A     47  43  87 W9        29.82F
$$

TXZ055-058-074-075-080-082-052100-
TEXAS TECH WEST TEXAS MESONET/FAR WEST/SOUTHWEST MOUNTAINS/TRANS PECOS

CITY           SKY/WX    TMP DP  RH WIND       PRES   REMARKS
PRSMN GAP BBNP   N/A     58  44  61 SW18      29.85F
GUADLPE MTN NP   N/A     52  20  28 W24       29.84F
$$



USA.gov is the U.S. government's official web portal to all federal, state and local government web resources and services.